Regional Weather Roundup
Issued by NWS

Home | Current Version | Previous Version | Graphics & Text | Print | Product List | Glossary Off
Versions: 1 2 3 4 5 6 7 8 9 10 11 12 13 14 15 16 17 18 19 20 21 22 23 24 25 26 27 28 29 30 31 32 33 34 35 36 37 38 39 40 41 42 43 44 45 46 47 48 49 50

000
ASUS43 KTOP 122308
RWRKS

WEATHER ROUNDUP FOR KANSAS
NATIONAL WEATHER SERVICE GOODLAND KS
500 PM CST TUE DEC 12 2017

NOTE:  "FAIR" INDICATES FEW OR NO CLOUDS BELOW 12,000 FEET WITH NO
SIGNIFICANT WEATHER AND/OR OBSTRUCTIONS TO VISIBILITY.

KSZ001>006-013>018-027>032-041>047-130000-
NORTHWEST KANSAS

CITY           SKY/WX    TMP DP  RH WIND       PRES   REMARKS
GOODLAND       CLEAR     59  17  19 NW3       30.10F
HAYS           CLEAR     56  16  20 S6        30.08F
HILL CITY      CLEAR     59  17  19 W3        30.07F
RUSSELL        CLEAR     51  22  31 SW8       30.08F
$$

KSZ061>065-074>080-084>089-130000-
SOUTHWEST KANSAS

CITY           SKY/WX    TMP DP  RH WIND       PRES   REMARKS
DODGE CITY     CLEAR     58  15  18 SW9       30.13F
ELKHART        CLEAR     63  22  21 CALM      30.17F
GARDEN CITY    CLEAR     58  13  17 W6        30.13F
GREAT BEND     CLEAR     53  18  25 SW8       30.11F
LIBERAL        CLEAR     61  14  16 SW5       30.15F
PRATT          CLEAR     51  19  28 SW10      30.14F
$$

KSZ066>073-081>083-090>101-130000-
SOUTHEAST KANSAS

CITY           SKY/WX    TMP DP  RH WIND       PRES   REMARKS
CHANUTE        CLEAR     43  27  53 SW5       30.18F
COFFEYVILLE    CLEAR     44  25  47 SW5       30.21F
HUTCHINSON     CLEAR     51  22  31 SW6       30.12F
MEDICINE LODGE   N/A     53  22  29 SW7       30.16F
NEWTON         CLEAR     47  25  42 SW9       30.14F
PARSONS        CLEAR     43  25  49 S3        30.20F
WICHITA INTL   CLEAR     50  29  44 SW10      30.15F
WICHITA JABRA  CLEAR     47  29  49 S10       30.15F
WICHITA MCCONL CLEAR     48  27  44 SW12      30.15F
WINFIELD       CLEAR     45  29  53 SW7       30.20F
$$

KSZ007>012-019>026-033>040-048>060-102>105-130000-
NORTHEAST KANSAS

CITY           SKY/WX    TMP DP  RH WIND       PRES   REMARKS
CONCORDIA      CLEAR     45  26  47 S6        30.08F
EMPORIA        CLEAR     43  26  51 SW7       30.14F
LAWRENCE       CLEAR     40  26  57 W5        30.15F
MANHATTAN      CLEAR     46  27  47 SW7       30.12F
MARYSVILLE     CLEAR     45  28  53 SW9       30.08F
OLATHE IND     CLEAR     38  24  57 W5        30.16F
OLATHE EXE     CLEAR     38  24  57 NW5       30.15F
SALINA         CLEAR     50  26  39 SW7       30.12F
TOPEKA BILLARD CLEAR     43  28  55 SW3       30.13F
TOPEKA FORBES  CLEAR     41  27  57 SW3       30.13F
$$




USA.gov is the U.S. government's official web portal to all federal, state and local government web resources and services.